User: anonymous   Login
Location: Unspecified
(0.0000°N, 0.0000°E)
Time: 22:13:53
(UTC+00:00)
Language:

APRIZESAT 6 - Orbit

View from above orbital plane
View from above orbital plane
View from above satellite
View from above satellite

Ground track
Ground track

The orbit data is extracted from the following two-line orbital elements,

1 37793U 11044F   17326.99048748  .00000145  00000-0  31412-4 0  9992
2 37793  98.3104  98.7136 0045840 291.7037 181.9278 14.72262768336632
Epoch (UTC): 22 November 2017 23:46:18
Eccentricity: 0.0045840
inclination: 98.3104°
perigee height: 621 km
apogee height: 686 km
right ascension of ascending node: 98.7136°
argument of perigee: 291.7037°
revolutions per day: 14.72262768
mean anomaly at epoch: 181.9278°
orbit number at epoch: 33663

The dashed part of the orbit path shows where the satellite is in the earth's shadow,  

DLR